Find Starlink 30308

NORAD ID: 57742 Int'l Des: 2023-131 Owner: SPXS Country: US Constellation: starlink operational
LEOCIRCULAR

Current View

Loading 3D Globe...

About Starlink 30308

Starlink 30308 (NORAD 57742) is a starlink constellation satellite (v2 mini) launched Sep 1, 2023 by SPXS of US. It operates in LEO, CIRCULAR orbit with a mass of 730.00 kg.

About Starlink 30308

Description loading...

Upcoming Passes

Passes for default location (London). Set your location on the main map for personalized predictions.

Altitude History

Loading altitude history...

Two-Line Element Set

1 57742U 23131L 26166.75236488 .00000199 00000-0 16772-4 0 9995
2 57742 43.0004 338.6730 0001325 274.1929 85.8771 15.27576334154923
Epoch: Jun 15, 2026 • Age: 12 hours

Current Status

Altitude 495.0 km
Velocity 7.62 km/s
Sub-Earth Point -41.92°S, 127.96°W
Launch Date Sep 1, 2023
Age 2.7 years
Type internet

Technical Details

Classification Payload
Mass 730.00 kg
Dry Mass 700.00 kg
Total Mass 730.00 kg
Length 0.30 m
Diameter 4.10 m
Span 29.00 m
Shape Box + pan
Manufacturer SPXS
Bus Type Starlink V2M
Phase Status In Orbit
Owner/State SPXS/US

Most Searched